User: anonymous   Login
Location: Lesignano de� Bagni
(44.6500°N, 10.3000°E)
Time: 19:42:15
(UTC+00:00)
Language:

Cosmos 2333 - Orbit

View from above orbital plane
View from above orbital plane
View from above satellite
View from above satellite

Ground track
Ground track

The orbit data is extracted from the following two-line orbital elements,

1 24297U 96051A   21136.51474146  .00000274  00000-0  17119-3 0  9995
2 24297  70.9049 285.5773 0025051 222.9565 136.9600 14.13358446273787
Epoch (UTC): 16 May 2021 12:21:13
Eccentricity: 0.0025051
inclination: 70.9049°
perigee height: 830 km
apogee height: 866 km
right ascension of ascending node: 285.5773°
argument of perigee: 222.9565°
revolutions per day: 14.13358446
mean anomaly at epoch: 136.9600°
orbit number at epoch: 27378

The dashed part of the orbit path shows where the satellite is in the earth's shadow,  

DLR